地球静止运行环境卫星 12星 (GOES 12)

导读 | 星芒AI

GOES 12 是美国国家气象局(NOAA)于2001年发射的地球静止环境卫星,属于GOES系列。它主要用于监测北美、中美洲及大西洋地区的天气变化,提供高分辨率的可见光和红外图像,支持气象预报、风暴跟踪和气候研究。该卫星搭载多种遥感仪器,能够实时传输气象数据,提高天气预警的准确性。GOES 12 在2012年退役,但在其服役期间对提升天气预测能力发挥了重要作用。

基本信息
目录编号:
26871
目录名称:
GOES 12
国际标识:
2001-031A
轨道中心:
EARTH
卫星名称:
地球静止运行环境卫星 12星
卫星全名:
地球静止运行环境卫星 12星 (GOES 12)
卫星状态:
在轨 (已飞行8878 天)
发射日期:
2001-07-23 UTC
国别 :
美国 (US)
星等 :
--
轨道信息
数据来源 国际轨道数据 AOE轨道数据
星历时间 2025-11-12T04:44:39+0800
1天前
查看轨道信息
2025-11-12T05:00:00+0800
1天前
查看轨道信息
半长轴 42486.085km 42486.485km
偏心率 0.0006469 0.0006371
轨道倾角 11.788° 11.788°
近地点辐角 269.872° 272.627°
升交点赤经 39.080° 39.081°
平近点角 93.406° 94.449°
近地点 36080.465km 36081.281km
远地点 36135.435km 36135.419km
周期 1452.546分钟 1452.566分钟
每日圈数 0.991363 0.991349
详细信息
卫星平台:
LS-1300
平衡模式:
三轴稳定
覆盖范围:
全球
制造商(研发单位):
劳拉空间系统公司
制造商所在国:
美国
使用方式:
暂无
卫星简介
地球静止环境业务卫星是美国国家海洋和大气管理局(NOAA)与美国国家航空航天局(NASA)共同发展的民用静止轨道气象系列卫星。[1]美国第一代地球静止轨道气象卫星系列。英文缩写为GOES。该卫星已退役。
2D轨道图
3D轨道图
轨道高度分析图
轨道倾角分析图
轨道综合分析图
查看轨道综合分析图